Location: Praha
(50.0830°N, 14.4670°E)
Time: 10:26:34
(UTC+02:00)

ISS - Pass Details

Date: 21 May 2019
Orbit: 407 x 410 km, 51.6° (Epoch: 21 May)

Event Time Altitude Azimuth Distance (km) Brightness Sun altitude
Rises 23:32:16 0° 270° (W) 2,333 0.3 -17.1°
Reaches altitude 10° 23:34:22 10° 274° (W) 1,473 -0.7 -17.2°
Maximum altitude 23:37:39 65° 357° (N) 455 -3.4 -17.4°
Drops below altitude 10° 23:40:56 10° 80° (E) 1,475 -1.1 -17.6°
Enters shadow 23:41:33 - 81° (E) 1,728 -0.7 -17.6°
